Radiation Dose at Monitoring Post of Fukushima Daini Nuclear Power Station
Date,Time,MP-1(microSv/h),MP-2(microSv/h),MP-3(microSv/h),MP-4(microSv/h),MP-5(microSv/h),MP-6(microSv/h),MP-7(microSv/h),Wind Direction,Wind Velocity(m/s),Rain
2019/02/11,00:00,0.207,0.189,0.306,0.286,0.267,0.152,0.092,north-northwest,3.5,No
2019/02/11,00:10,0.208,0.187,0.305,0.286,0.266,0.152,0.092,north-northwest,3.7,No
2019/02/11,00:20,0.208,0.188,0.307,0.286,0.268,0.152,0.093,north-northwest,4.1,No
2019/02/11,00:30,0.208,0.188,0.306,0.285,0.269,0.153,0.092,north-northwest,3.8,No
2019/02/11,00:40,0.207,0.188,0.305,0.285,0.269,0.152,0.093,north-northwest,3.5,No
2019/02/11,00:50,0.208,0.189,0.306,0.284,0.267,0.151,0.092,north,2.5,No
2019/02/11,01:00,0.208,0.188,0.306,0.286,0.268,0.151,0.093,north-northwest,3.2,No
2019/02/11,01:10,0.208,0.187,0.305,0.286,0.267,0.152,0.093,north-northwest,3.3,No
2019/02/11,01:20,0.207,0.189,0.307,0.286,0.269,0.153,0.092,north,2.1,No
2019/02/11,01:30,0.207,0.188,0.306,0.285,0.269,0.151,0.093,north-northeast,2.8,No
2019/02/11,01:40,0.207,0.188,0.305,0.286,0.267,0.152,0.093,northeast,2.7,No
2019/02/11,01:50,0.209,0.189,0.306,0.286,0.267,0.151,0.092,northeast,2.8,No
2019/02/11,02:00,0.207,0.187,0.306,0.286,0.268,0.152,0.092,north,2.3,No
2019/02/11,02:10,0.208,0.189,0.307,0.286,0.268,0.152,0.093,north,1.2,No
2019/02/11,02:20,0.209,0.188,0.305,0.284,0.269,0.152,0.092,east-southeast,0.8,No
2019/02/11,02:30,0.208,0.188,0.306,0.286,0.269,0.152,0.092,-,CALM,No
2019/02/11,02:40,0.208,0.189,0.306,0.286,0.267,0.152,0.093,northeast,0.6,No
2019/02/11,02:50,0.209,0.188,0.307,0.286,0.268,0.152,0.093,northwest,2.5,No
2019/02/11,03:00,0.208,0.188,0.307,0.286,0.268,0.151,0.093,north,1.5,No
2019/02/11,03:10,0.208,0.189,0.306,0.286,0.269,0.152,0.093,north-northeast,1.0,No
2019/02/11,03:20,0.207,0.189,0.306,0.285,0.268,0.152,0.093,north,1.4,No
2019/02/11,03:30,0.207,0.188,0.307,0.285,0.269,0.152,0.093,north-northwest,1.7,No
2019/02/11,03:40,0.208,0.187,0.306,0.286,0.268,0.151,0.092,north-northwest,1.9,No
2019/02/11,03:50,0.208,0.189,0.305,0.286,0.267,0.152,0.093,north,2.0,No
2019/02/11,04:00,0.208,0.188,0.306,0.285,0.269,0.152,0.093,north-northwest,2.2,No
2019/02/11,04:10,0.209,0.188,0.306,0.286,0.269,0.153,0.093,north-northwest,3.5,No
2019/02/11,04:20,0.209,0.189,0.307,0.286,0.268,0.153,0.092,north-northwest,4.2,No
2019/02/11,04:30,0.208,0.188,0.306,0.286,0.269,0.152,0.093,north-northwest,3.9,No
2019/02/11,04:40,0.207,0.187,0.306,0.286,0.267,0.153,0.093,northwest,3.3,No
2019/02/11,04:50,0.208,0.188,0.307,0.286,0.269,0.151,0.093,northwest,4.2,No
2019/02/11,05:00,0.207,0.188,0.307,0.285,0.268,0.152,0.093,northwest,4.9,No
2019/02/11,05:10,0.208,0.188,0.307,0.285,0.269,0.152,0.093,northwest,4.7,No
2019/02/11,05:20,0.207,0.188,0.307,0.286,0.268,0.151,0.093,northwest,5.6,No
2019/02/11,05:30,0.208,0.188,0.306,0.286,0.267,0.152,0.094,northwest,6.0,No
2019/02/11,05:40,0.208,0.189,0.306,0.286,0.269,0.152,0.093,northwest,6.3,No
2019/02/11,05:50,0.208,0.187,0.306,0.285,0.269,0.152,0.094,northwest,6.4,No
2019/02/11,06:00,0.209,0.188,0.306,0.285,0.268,0.151,0.092,northwest,7.1,No
2019/02/11,06:10,0.208,0.189,0.307,0.287,0.268,0.151,0.093,west-northwest,7.3,No
2019/02/11,06:20,0.209,0.187,0.308,0.286,0.267,0.152,0.093,west-northwest,7.4,No
2019/02/11,06:30,0.208,0.187,0.307,0.285,0.268,0.152,0.093,west-northwest,7.6,No
2019/02/11,06:40,0.207,0.187,0.307,0.285,0.269,0.152,0.093,west-northwest,8.1,No
2019/02/11,06:50,0.209,0.188,0.307,0.287,0.267,0.152,0.093,west-northwest,8.4,No
2019/02/11,07:00,0.208,0.188,0.307,0.285,0.269,0.152,0.092,west-northwest,6.5,No
2019/02/11,07:10,0.208,0.189,0.307,0.286,0.268,0.152,0.093,west-northwest,6.0,No
2019/02/11,07:20,0.209,0.187,0.305,0.286,0.267,0.152,0.093,west-northwest,5.3,No
2019/02/11,07:30,0.208,0.187,0.308,0.286,0.267,0.151,0.093,northwest,3.5,No
2019/02/11,07:40,0.208,0.189,0.307,0.284,0.268,0.152,0.092,west-northwest,4.7,No
2019/02/11,07:50,0.209,0.189,0.306,0.286,0.269,0.152,0.092,west-northwest,4.5,No
2019/02/11,08:00,0.208,0.188,0.307,0.286,0.267,0.151,0.093,northwest,4.3,No
2019/02/11,08:10,0.208,0.189,0.307,0.286,0.267,0.151,0.093,northwest,3.8,No
2019/02/11,08:20,0.208,0.187,0.305,0.286,0.269,0.152,0.094,west-northwest,3.7,No
2019/02/11,08:30,0.208,0.188,0.307,0.286,0.269,0.151,0.093,west-northwest,4.2,No
2019/02/11,08:40,0.208,0.189,0.305,0.286,0.269,0.151,0.093,west-northwest,3.7,No
2019/02/11,08:50,0.209,0.189,0.306,0.286,0.267,0.151,0.093,west-northwest,2.8,No
2019/02/11,09:00,0.208,0.188,0.306,0.287,0.268,0.152,0.093,west,2.6,No
2019/02/11,09:10,0.209,0.189,0.306,0.286,0.268,0.151,0.093,west,2.6,No
2019/02/11,09:20,0.208,0.189,0.306,0.287,0.269,0.151,0.092,west-southwest,1.9,No
2019/02/11,09:30,0.209,0.188,0.305,0.285,0.269,0.152,0.092,west-southwest,1.6,No
2019/02/11,09:40,0.207,0.188,0.306,0.286,0.270,0.152,0.093,southwest,1.4,No
2019/02/11,09:50,0.207,0.189,0.306,0.285,0.270,0.153,0.093,south-southwest,1.1,No
2019/02/11,10:00,0.208,0.188,0.306,0.287,0.268,0.152,0.093,south-southwest,1.1,No
2019/02/11,10:10,0.207,0.189,0.306,0.286,0.269,0.152,0.093,south,1.4,No
2019/02/11,10:20,0.207,0.188,0.306,0.285,0.269,0.152,0.092,south-southeast,1.1,No
2019/02/11,10:30,0.208,0.188,0.307,0.288,0.269,0.152,0.092,southeast,1.8,No
2019/02/11,10:40,0.207,0.189,0.307,0.287,0.268,0.151,0.092,east-southeast,2.1,No
2019/02/11,10:50,0.207,0.188,0.306,0.285,0.269,0.152,0.092,southeast,2.1,No
2019/02/11,11:00,0.209,0.189,0.306,0.287,0.271,0.153,0.092,east-southeast,2.4,No
2019/02/11,11:10,0.208,0.188,0.306,0.287,0.271,0.152,0.093,southeast,2.6,No
2019/02/11,11:20,0.208,0.188,0.308,0.286,0.269,0.152,0.093,southeast,2.7,No
2019/02/11,11:30,0.208,0.188,0.306,0.287,0.271,0.153,0.093,east-southeast,2.1,No
2019/02/11,11:40,0.207,0.189,0.305,0.287,0.271,0.152,0.093,south-southeast,2.3,No
2019/02/11,11:50,0.208,0.189,0.308,0.287,0.271,0.152,0.092,south-southeast,1.9,No
2019/02/11,12:00,0.208,0.189,0.306,0.286,0.271,0.153,0.093,south,2.5,No
2019/02/11,12:10,0.208,0.189,0.306,0.287,0.271,0.152,0.093,south-southeast,3.0,No
2019/02/11,12:20,0.209,0.189,0.307,0.288,0.270,0.154,0.093,southeast,3.7,No
2019/02/11,12:30,0.209,0.188,0.306,0.287,0.270,0.153,0.092,south-southeast,3.6,No
2019/02/11,12:40,0.208,0.189,0.307,0.287,0.271,0.153,0.092,south,3.3,No
2019/02/11,12:50,0.208,0.189,0.307,0.287,0.271,0.153,0.093,south,3.2,No
2019/02/11,13:00,0.209,0.190,0.309,0.290,0.272,0.153,0.094,south-southwest,3.9,No
2019/02/11,13:10,0.207,0.189,0.309,0.289,0.272,0.153,0.093,south,3.3,No
2019/02/11,13:20,0.208,0.190,0.306,0.289,0.272,0.153,0.093,south,2.8,No
2019/02/11,13:30,0.209,0.191,0.308,0.288,0.271,0.154,0.093,south-southwest,3.8,No
2019/02/11,13:40,0.208,0.190,0.308,0.288,0.272,0.154,0.094,south-southwest,3.0,No
2019/02/11,13:50,0.209,0.190,0.308,0.288,0.272,0.153,0.094,south-southwest,3.3,No
2019/02/11,14:00,0.209,0.190,0.308,0.288,0.272,0.154,0.093,south-southwest,3.3,No
2019/02/11,14:10,0.210,0.190,0.308,0.288,0.271,0.153,0.093,south,3.1,No
2019/02/11,14:20,0.209,0.190,0.307,0.290,0.272,0.154,0.093,south,3.9,No
2019/02/11,14:30,0.210,0.189,0.309,0.289,0.273,0.154,0.093,south-southwest,3.0,No
2019/02/11,14:40,0.209,0.192,0.309,0.288,0.272,0.153,0.093,south,2.8,No
2019/02/11,14:50,0.210,0.190,0.309,0.289,0.272,0.155,0.093,south-southwest,3.6,No
2019/02/11,15:00,0.209,0.189,0.310,0.289,0.273,0.154,0.093,south,3.4,No
2019/02/11,15:10,0.210,0.190,0.309,0.288,0.273,0.154,0.093,south,3.2,No
2019/02/11,15:20,0.210,0.191,0.308,0.290,0.272,0.154,0.093,south,3.3,No
2019/02/11,15:30,0.209,0.191,0.308,0.289,0.273,0.154,0.093,south,3.8,No
2019/02/11,15:40,0.210,0.190,0.310,0.289,0.272,0.153,0.093,south-southwest,2.8,No
2019/02/11,15:50,0.210,0.191,0.308,0.290,0.273,0.155,0.092,south-southwest,2.4,No
2019/02/11,16:00,0.210,0.190,0.310,0.289,0.272,0.154,0.094,south-southwest,2.2,No
2019/02/11,16:10,0.210,0.191,0.309,0.289,0.272,0.154,0.093,south-southwest,1.7,No
2019/02/11,16:20,0.210,0.190,0.309,0.289,0.273,0.154,0.094,south-southwest,3.1,No
2019/02/11,16:30,0.209,0.191,0.310,0.290,0.272,0.155,0.093,south-southwest,4.0,No
2019/02/11,16:40,0.209,0.190,0.308,0.289,0.273,0.153,0.093,south-southwest,4.5,No
2019/02/11,16:50,0.209,0.191,0.309,0.288,0.274,0.155,0.094,south-southwest,4.4,No
2019/02/11,17:00,0.210,0.191,0.310,0.289,0.275,0.154,0.093,south-southwest,4.1,No
2019/02/11,17:10,0.210,0.191,0.310,0.290,0.272,0.154,0.093,south-southwest,4.8,No
2019/02/11,17:20,0.210,0.191,0.310,0.290,0.273,0.154,0.094,south-southwest,4.6,No
2019/02/11,17:30,0.211,0.190,0.309,0.290,0.274,0.155,0.094,south-southwest,5.1,No
2019/02/11,17:40,0.211,0.192,0.310,0.289,0.273,0.155,0.094,south-southwest,4.7,No
2019/02/11,17:50,0.211,0.191,0.309,0.290,0.273,0.155,0.093,south-southwest,4.3,No
2019/02/11,18:00,0.211,0.190,0.310,0.290,0.274,0.154,0.094,southwest,4.0,No
2019/02/11,18:10,0.210,0.190,0.310,0.290,0.274,0.155,0.094,-,CALM,No
2019/02/11,18:20,0.210,0.192,0.310,0.290,0.273,0.154,0.094,southwest,3.7,No
2019/02/11,18:30,0.212,0.190,0.310,0.290,0.273,0.154,0.093,south-southwest,3.8,No
2019/02/11,18:40,0.211,0.192,0.309,0.290,0.273,0.155,0.094,south-southwest,3.7,No
2019/02/11,18:50,0.210,0.191,0.310,0.290,0.273,0.154,0.094,south-southwest,3.9,No
2019/02/11,19:00,0.211,0.190,0.309,0.289,0.272,0.154,0.094,south-southwest,3.9,No
2019/02/11,19:10,0.211,0.190,0.310,0.290,0.273,0.155,0.094,south-southwest,4.0,No
2019/02/11,19:20,0.211,0.191,0.311,0.290,0.273,0.155,0.093,south-southwest,3.7,No
2019/02/11,19:30,0.211,0.191,0.311,0.290,0.273,0.154,0.094,south-southwest,4.2,No
2019/02/11,19:40,0.210,0.191,0.311,0.289,0.273,0.154,0.093,south-southwest,4.5,No
2019/02/11,19:50,0.211,0.191,0.312,0.290,0.273,0.155,0.093,south-southwest,4.7,No
2019/02/11,20:00,0.210,0.191,0.311,0.291,0.273,0.155,0.093,south-southwest,4.3,No
2019/02/11,20:10,0.210,0.191,0.311,0.290,0.274,0.156,0.093,south-southwest,4.2,No
2019/02/11,20:20,0.210,0.190,0.309,0.289,0.272,0.155,0.094,south-southwest,4.7,No
2019/02/11,20:30,0.212,0.190,0.309,0.289,0.271,0.154,0.094,southwest,4.9,No
2019/02/11,20:40,0.211,0.191,0.311,0.290,0.273,0.154,0.094,southwest,4.3,No
2019/02/11,20:50,0.211,0.192,0.310,0.290,0.273,0.154,0.093,southwest,4.2,No
2019/02/11,21:00,0.211,0.191,0.310,0.289,0.274,0.155,0.094,south-southwest,3.6,No
2019/02/11,21:10,0.212,0.191,0.310,0.290,0.273,0.155,0.094,south-southeast,3.9,No
2019/02/11,21:20,0.211,0.190,0.311,0.290,0.275,0.155,0.093,south,3.8,No
2019/02/11,21:30,0.211,0.193,0.311,0.290,0.273,0.154,0.094,south-southwest,2.9,No
2019/02/11,21:40,0.211,0.191,0.309,0.290,0.273,0.155,0.093,south-southwest,2.8,No
2019/02/11,21:50,0.210,0.192,0.309,0.290,0.273,0.155,0.094,southwest,3.5,No
2019/02/11,22:00,0.212,0.192,0.310,0.292,0.274,0.155,0.093,south-southwest,3.3,No
2019/02/11,22:10,0.211,0.191,0.311,0.290,0.273,0.155,0.093,south-southwest,3.8,No
2019/02/11,22:20,0.211,0.191,0.310,0.289,0.274,0.155,0.093,southwest,4.9,No
2019/02/11,22:30,0.211,0.191,0.310,0.290,0.274,0.155,0.094,south-southwest,6.7,No
2019/02/11,22:40,0.212,0.191,0.311,0.290,0.274,0.155,0.093,southwest,4.5,No
2019/02/11,22:50,0.210,0.191,0.310,0.290,0.273,0.155,0.094,south-southwest,4.0,No
2019/02/11,23:00,0.211,0.193,0.310,0.291,0.274,0.156,0.094,south-southwest,3.5,No
2019/02/11,23:10,0.211,0.191,0.311,0.289,0.273,0.155,0.094,southwest,3.3,No
2019/02/11,23:20,0.212,0.192,0.311,0.292,0.272,0.156,0.094,south-southwest,2.8,No
2019/02/11,23:30,0.211,0.193,0.310,0.292,0.274,0.156,0.094,south-southwest,3.4,No
2019/02/11,23:40,0.212,0.192,0.311,0.290,0.273,0.154,0.093,south-southwest,5.1,No
2019/02/11,23:50,0.211,0.191,0.311,0.289,0.273,0.155,0.093,south-southwest,5.1,No
